Temp
4 3 3 3 3 4 4 4 4 4 5 5 6 7 7 7 7 8 9 9 9 8 8 8 8 7 9 6 7 6 8 7 7 5 5 4 4 4 4 4 4 4 4 3
3 3 3 3 3 3 3 3 4 4 4 4 5 6 7 7 7 8 8 8 7 8 8 8 8 7 7 8 6 7 8 7 7 6 5 5 4 4 4 4 4 4 4 3
2 3 2 2 2 3 3 3 3 4 4 4 5 5 6 7 7 8 7 8 8 8 8 7 9 7 7 8 7 7 7 7 6 6 5 4 4 5 4 4 4 3 3 3
2 2 2 2 2 2 2 3 3 3 3 4 4 5 6 7 8 8 7 8 7 7 8 7 6 7 9 7 6 7 7 6 6 5 5 5 4 4 3 3 3 3 3 3
3 3 2 1 2 2 2 2 2 2 3 4 4 4 6 7 8 8 6 8 8 7 7 7 7 7 7 7 7 8 7 6 6 5 5 5 4 4 4 3 3 3 3 2
3 2 2 2 2 2 2 2 2 2 2 2 4 4 4 5 7 8 7 7 7 7 7 7 7 7 6 6 7 7 7 6 6 5 5 5 5 4 3 3 3 2 2 2
3 2 2 2 2 2 2 0 -1 -0 1 2 3 2 3 5 6 7 8 7 6 7 8 6 7 6 7 7 7 7 7 6 6 5 5 4 4 3 2 2 2 2 2 1
3 2 2 2 2 1 2 2 -0 -1 1 1 0 0 1 2 5 8 7 7 7 7 7 6 6 6 6 6 6 6 6 6 6 5 5 4 4 3 2 2 2 1 1 1
2 2 3 3 3 2 3 2 -1 -1 -1 -0 -0 0 2 4 4 4 6 5 6 7 7 7 7 7 7 6 6 6 6 6 6 5 5 3 3 2 2 1 1 1 0 -0
2 2 3 4 3 3 2 2 0 -1 1 1 3 5 5 5 5 6 6 6 7 7 7 7 7 7 6 6 6 5 6 6 5 4 3 3 3 2 1 1 1 0 -0 -1
2 3 3 4 4 3 3 3 3 1 0 2 4 5 5 5 4 5 7 7 6 7 7 7 6 6 6 5 5 5 5 5 4 3 2 2 2 1 0 0 -0 -0 -1 -1
2 2 3 5 4 4 4 4 4 2 1 0 1 4 5 4 4 5 5 6 6 6 6 6 5 5 5 5 5 5 5 3 3 2 2 1 1 1 0 -0 -0 -1 -2 -2
2 3 3 4 5 4 4 4 4 4 2 2 1 3 4 5 5 5 5 5 5 5 5 5 5 5 5 5 5 4 3 3 1 1 1 1 0 0 -0 -1 -1 -2 -2 -3
2 1 2 3 4 4 4 4 4 4 4 4 5 5 5 5 4 5 5 5 5 5 5 5 5 5 4 4 3 3 2 1 1 1 1 0 0 -0 -1 -2 -2 -3 -3 -4
1 2 2 3 4 4 4 4 4 4 4 4 4 4 4 4 4 5 5 5 4 4 4 4 4 4 3 3 3 3 2 2 1 1 0 0 -1 -1 -2 -3 -3 -4 -4 -4
2 2 2 4 5 4 5 4 4 4 4 4 4 4 4 4 3 4 4 4 4 4 4 3 3 3 3 3 2 2 1 1 0 -0 -0 -1 -2 -3 -3 -4 -4 -4 -4 -5
1 1 1 3 5 5 5 5 4 4 3 4 4 4 4 4 4 4 4 4 4 3 3 3 3 3 2 2 1 1 1 -0 -0 -1 -2 -2 -3 -4 -4 -4 -4 -5 -6 -6
2 1 1 2 4 5 5 5 4 4 4 4 4 3 3 4 4 3 3 3 3 3 3 3 2 2 1 1 1 0 -0 -1 -2 -2 -3 -4 -4 -4 -5 -5 -6 -6 -6 -7
2 2 1 2 3 4 4 5 4 4 4 4 4 3 3 3 3 3 3 3 3 3 2 2 2 1 1 1 0 -0 -1 -2 -3 -3 -4 -4 -5 -5 -6 -6 -7 -7 -7 -7
2 2 1 2 3 3 4 4 4 4 3 3 3 3 3 3 3 3 3 3 2 2 2 1 1 1 1 0 -0 -1 -2 -3 -3 -4 -4 -5 -6 -6 -7 -7 -8 -8 -8 -8
2 2 2 1 3 4 4 4 4 4 3 3 3 3 3 3 3 3 3 2 2 1 1 1 1 0 -0 -1 -1 -2 -3 -3 -4 -5 -6 -6 -7 -7 -8 -8 -8 -8 -8 -8
2 3 2 2 3 3 3 3 4 3 3 3 3 3 3 2 2 2 2 2 1 1 1 0 0 -0 -1 -2 -2 -3 -3 -4 -5 -6 -7 -7 -8 -8 -8 -8 -8 -8 -8 -8
2 2 2 3 2 3 3 3 3 3 3 3 3 3 3 3 2 2 2 1 1 1 0 -0 -1 -1 -2 -3 -3 -4 -4 -5 -6 -7 -8 -8 -8 -9 -9 -9 -9 -9 -9 -9
1 1 1 2 2 2 2 2 3 3 3 3 3 3 3 3 2 2 2 1 1 0 -0 -1 -1 -2 -3 -3 -3 -4 -5 -6 -7 -8 -8 -8 -9 -9 -9 -9 -9 -9 -9 -9
0 -1 0 0 1 1 1 2 2 2 2 3 3 3 3 3 2 2 1 1 0 -0 -1 -1 -2 -3 -3 -4 -4 -5 -6 -7 -8 -8 -8 -9 -9 -9 -9 -9 -9 -9 -9 -9
0 1 0 1 1 0 1 0 1 2 2 2 2 3 3 3 2 1 1 0 -0 -1 -1 -2 -3 -3 -4 -4 -5 -6 -7 -7 -8 -8 -9 -9 -9 -9 -9 -9 -9 -10 -10 -10
Height
3108 3105 3101 3100 3098 3094 3092 3091 3089 3087 3086 3085 3082 3083 3086 3089 3092 3094 3098 3103 3107 3110 3116 3115 3119 3121 3119 3124 3126 3131 3137 3140 3142 3141 3143 3146 3147 3149 3150 3149 3148 3149 3149 3149
3105 3101 3098 3095 3092 3090 3089 3087 3084 3082 3082 3082 3079 3076 3079 3084 3086 3090 3094 3097 3097 3102 3108 3108 3113 3115 3118 3122 3107 3126 3131 3136 3137 3136 3139 3140 3140 3145 3146 3145 3144 3145 3146 3147
3101 3099 3095 3093 3090 3087 3085 3083 3080 3079 3077 3075 3075 3072 3072 3076 3080 3084 3088 3093 3095 3097 3102 3103 3108 3113 3114 3118 3119 3123 3128 3131 3133 3133 3135 3136 3138 3141 3141 3141 3141 3142 3143 3143
3099 3095 3092 3089 3087 3085 3080 3078 3076 3074 3073 3071 3072 3068 3067 3071 3074 3077 3081 3086 3089 3095 3098 3102 3103 3107 3109 3113 3118 3121 3125 3127 3130 3129 3130 3131 3134 3136 3136 3137 3138 3139 3139 3139
3100 3090 3088 3087 3085 3080 3076 3074 3072 3072 3069 3068 3066 3068 3060 3064 3067 3069 3076 3079 3085 3090 3093 3097 3100 3104 3108 3111 3113 3116 3120 3123 3126 3126 3127 3128 3130 3130 3131 3134 3134 3135 3135 3134
3099 3092 3090 3085 3081 3078 3074 3071 3068 3066 3066 3064 3060 3063 3055 3059 3063 3066 3071 3077 3080 3083 3089 3093 3096 3099 3102 3105 3109 3112 3115 3118 3120 3119 3122 3125 3125 3126 3128 3129 3130 3129 3130 3130
3096 3092 3088 3085 3079 3075 3072 3068 3067 3067 3063 3058 3057 3059 3051 3053 3056 3059 3060 3070 3077 3080 3085 3089 3093 3095 3097 3101 3106 3106 3109 3113 3115 3117 3119 3120 3121 3123 3124 3125 3125 3124 3123 3125
3096 3090 3087 3084 3083 3078 3072 3070 3071 3068 3056 3052 3052 3055 3057 3051 3053 3054 3055 3064 3072 3075 3079 3084 3089 3093 3097 3100 3102 3103 3105 3108 3111 3113 3114 3116 3117 3119 3119 3120 3119 3119 3119 3119
3099 3093 3088 3085 3081 3079 3073 3072 3067 3064 3054 3055 3049 3055 3058 3052 3059 3053 3058 3059 3065 3071 3077 3081 3085 3089 3092 3095 3098 3100 3102 3105 3106 3108 3110 3112 3113 3114 3115 3114 3115 3113 3113 3112
3103 3095 3089 3086 3082 3079 3078 3075 3067 3060 3057 3064 3061 3058 3060 3061 3060 3058 3062 3066 3070 3073 3077 3079 3082 3085 3088 3091 3094 3097 3099 3101 3103 3104 3106 3108 3110 3110 3109 3109 3110 3109 3109 3106
3102 3100 3090 3087 3084 3080 3079 3076 3073 3069 3066 3068 3064 3068 3067 3066 3065 3063 3063 3067 3070 3073 3075 3077 3080 3083 3086 3089 3092 3094 3096 3098 3099 3101 3104 3105 3105 3105 3104 3104 3103 3102 3101 3100
3101 3095 3090 3087 3085 3082 3080 3079 3077 3075 3076 3074 3073 3076 3072 3069 3068 3067 3067 3069 3072 3074 3076 3078 3080 3082 3085 3087 3089 3091 3092 3095 3098 3100 3100 3101 3100 3099 3098 3097 3096 3095 3093 3091
3099 3096 3093 3088 3087 3085 3082 3080 3080 3078 3077 3078 3076 3079 3076 3074 3071 3070 3071 3072 3073 3075 3077 3079 3081 3083 3084 3086 3087 3090 3092 3095 3095 3097 3097 3096 3095 3094 3092 3091 3089 3087 3085 3082
3100 3097 3098 3096 3091 3088 3083 3081 3079 3079 3078 3079 3079 3079 3079 3076 3073 3074 3074 3074 3075 3077 3078 3080 3081 3082 3084 3085 3087 3090 3092 3093 3093 3093 3093 3092 3090 3089 3086 3084 3081 3078 3076 3073
3101 3095 3093 3090 3087 3086 3084 3082 3079 3079 3079 3079 3080 3078 3078 3077 3076 3075 3075 3076 3077 3078 3079 3080 3082 3083 3084 3086 3088 3089 3090 3090 3089 3088 3087 3086 3084 3081 3079 3076 3073 3070 3067 3063
3099 3095 3092 3085 3084 3085 3085 3083 3080 3079 3078 3078 3078 3077 3077 3078 3077 3076 3076 3077 3078 3079 3080 3081 3082 3083 3084 3085 3086 3087 3086 3085 3084 3082 3082 3079 3075 3074 3071 3068 3065 3061 3057 3053
3096 3096 3092 3087 3085 3085 3086 3083 3082 3081 3080 3078 3078 3077 3077 3078 3077 3077 3077 3077 3078 3079 3080 3081 3082 3082 3083 3083 3083 3082 3082 3080 3077 3075 3073 3071 3068 3065 3062 3059 3055 3051 3048 3046
3093 3094 3093 3087 3084 3084 3084 3083 3083 3082 3080 3079 3078 3077 3077 3077 3077 3077 3077 3077 3077 3078 3079 3079 3080 3080 3080 3079 3078 3077 3076 3074 3071 3067 3064 3063 3060 3057 3052 3049 3046 3044 3041 3038
3092 3092 3092 3090 3088 3086 3084 3083 3083 3082 3083 3080 3079 3078 3078 3077 3077 3077 3077 3077 3077 3077 3077 3077 3077 3077 3076 3075 3073 3071 3069 3066 3064 3062 3059 3054 3050 3047 3044 3041 3039 3036 3033 3030
3090 3090 3092 3090 3088 3085 3083 3083 3082 3082 3083 3082 3081 3080 3079 3078 3077 3078 3078 3077 3077 3076 3075 3075 3074 3073 3072 3070 3068 3065 3063 3060 3058 3055 3051 3047 3043 3040 3037 3034 3031 3029 3025 3023
3089 3088 3088 3089 3088 3084 3082 3082 3082 3083 3087 3081 3081 3080 3079 3079 3079 3078 3077 3076 3075 3074 3073 3072 3071 3070 3068 3065 3063 3060 3058 3055 3051 3047 3044 3040 3037 3033 3030 3027 3024 3021 3018 3015
3088 3088 3087 3086 3086 3084 3081 3081 3083 3082 3080 3080 3079 3078 3078 3077 3076 3076 3075 3074 3073 3072 3070 3069 3067 3065 3063 3061 3058 3055 3053 3049 3045 3041 3037 3033 3030 3027 3023 3020 3017 3014 3011 3008
3086 3085 3084 3084 3082 3080 3080 3080 3079 3079 3078 3078 3077 3077 3076 3075 3074 3073 3073 3072 3070 3069 3067 3066 3063 3061 3060 3057 3054 3049 3046 3043 3038 3033 3030 3026 3024 3020 3017 3013 3011 3008 3004 3001
3082 3079 3079 3080 3079 3077 3077 3078 3078 3077 3076 3076 3075 3074 3073 3072 3071 3071 3070 3069 3068 3066 3064 3062 3059 3057 3056 3052 3049 3046 3041 3036 3032 3028 3024 3021 3018 3015 3012 3008 3005 3001 2998 2994
3076 3074 3074 3072 3074 3075 3074 3074 3074 3073 3073 3073 3072 3071 3069 3069 3068 3067 3067 3065 3064 3063 3060 3058 3056 3053 3051 3047 3044 3040 3035 3031 3027 3023 3019 3016 3012 3010 3007 3003 2999 2995 2992 2987
3067 3068 3067 3064 3070 3072 3070 3067 3066 3069 3069 3069 3069 3067 3066 3065 3065 3064 3063 3062 3061 3059 3057 3055 3053 3050 3047 3043 3039 3034 3030 3026 3022 3019 3015 3011 3007 3004 3001 2998 2995 2991 2986 2981
Wind_Speed
17 21 19 22 22 24 21 22 27 29 27 26 26 26 28 25 28 34 28 39 31 32 30 34 36 41 46 30 38 30 19 15 22 24 24 22 18 16 16 12 11 10 12 15
20 24 18 18 19 19 21 26 27 28 23 23 28 31 28 27 30 29 27 30 34 30 27 28 27 31 31 37 31 22 25 24 32 28 24 20 18 19 18 14 13 14 14 16
17 15 11 19 20 19 21 24 25 26 23 24 24 30 27 29 28 31 31 29 29 25 30 30 27 28 31 36 32 31 21 22 25 25 24 19 21 21 18 15 16 16 16 16
13 22 23 15 16 17 20 17 21 22 21 18 20 19 30 27 31 34 33 35 31 28 28 30 30 31 33 33 32 29 23 23 26 25 23 22 23 20 19 19 18 18 18 17
23 22 11 12 16 20 24 22 21 18 23 23 26 21 28 30 34 38 30 32 35 30 33 31 26 28 30 33 36 31 26 27 30 28 23 24 22 24 23 20 20 19 19 18
25 15 10 18 23 17 18 17 17 20 17 15 25 16 15 21 27 36 30 28 28 28 30 32 29 26 28 35 36 33 32 30 29 27 24 25 26 25 21 22 24 19 20 19
19 14 13 12 24 12 13 8 7 4 2 5 7 11 27 9 7 29 41 30 32 33 30 32 33 32 32 30 29 31 31 28 27 23 25 26 27 24 24 23 25 20 22 21
21 19 21 18 16 15 15 9 2 4 2 3 9 8 7 3 6 12 31 39 36 26 24 27 31 31 32 32 29 26 29 29 24 24 27 25 24 22 25 26 24 23 25 26
17 14 20 15 12 11 13 12 15 5 10 4 6 6 2 10 3 9 21 23 28 22 19 19 19 22 22 22 26 31 30 27 24 25 24 23 23 24 29 24 21 25 26 30
10 18 9 21 12 13 14 14 10 7 4 5 7 22 16 12 8 4 7 10 13 14 14 16 19 22 24 24 25 27 23 23 21 21 23 23 24 30 22 25 26 27 29 32
17 10 21 15 8 12 13 15 12 15 9 3 3 12 16 14 7 7 10 14 13 11 11 13 15 17 16 16 16 18 19 19 21 22 25 22 29 24 25 26 28 31 33 32
12 12 18 10 6 14 16 16 13 8 6 12 4 14 20 12 7 9 6 5 6 7 8 9 9 10 11 13 14 17 17 16 17 21 22 27 21 24 27 30 32 31 33 34
22 9 15 14 8 17 19 16 11 11 8 19 5 6 14 17 15 12 8 6 6 6 7 8 9 10 11 12 12 11 15 16 17 20 23 22 25 28 30 31 32 34 35 37
18 13 14 18 23 23 18 14 10 8 6 7 8 13 3 13 13 9 7 5 4 5 5 6 6 7 7 8 8 9 11 14 17 21 23 26 28 29 31 33 35 36 37 37
17 17 13 18 17 13 10 11 8 6 6 3 8 5 8 8 2 5 3 2 2 2 3 4 4 5 5 6 8 9 11 16 19 23 25 28 30 32 34 35 36 36 36 37
16 13 19 22 7 9 10 8 7 5 3 2 3 1 6 6 5 5 3 1 1 1 2 3 4 5 6 8 10 13 16 20 23 27 28 31 33 34 35 34 34 36 36 32
15 8 14 7 9 12 4 9 4 4 6 4 1 4 4 4 3 2 1 1 2 3 4 5 6 9 11 12 15 18 20 24 28 31 31 32 33 33 32 35 35 33 30 30
15 8 6 11 14 2 1 8 4 5 10 7 1 3 1 1 1 0 0 3 4 5 6 7 10 12 14 17 19 22 24 26 29 31 32 31 31 34 35 34 30 29 29 28
8 5 5 5 11 6 1 7 6 2 6 10 7 4 3 3 5 5 2 2 5 6 7 10 12 14 16 19 22 24 26 27 28 29 30 34 35 34 31 29 29 28 28 28
5 5 8 3 2 2 4 5 6 3 1 8 6 4 2 2 2 3 4 5 6 8 9 11 14 18 20 21 23 25 25 27 29 31 33 33 32 30 29 29 28 28 27 28
4 5 10 9 8 6 8 7 2 2 3 7 7 5 4 5 6 8 8 8 9 11 13 15 18 19 20 21 23 24 26 29 30 31 30 30 29 29 28 27 26 27 28 28
8 6 7 7 6 6 8 9 5 4 8 8 9 9 7 8 9 10 11 11 12 13 15 17 18 20 20 21 24 27 28 28 29 29 28 28 27 26 26 27 28 27 26 27
10 13 10 3 5 9 10 9 8 9 9 9 10 11 12 12 11 11 12 13 14 16 18 19 20 20 20 22 24 28 28 28 27 27 26 26 25 25 25 25 25 26 26 27
16 20 21 19 13 15 18 16 13 9 9 10 12 12 13 13 12 12 13 15 17 18 19 20 20 20 21 24 25 26 27 27 25 24 24 24 24 24 24 24 24 25 26 28
21 17 16 15 17 14 18 16 16 13 12 13 14 14 12 12 13 13 15 17 18 18 19 19 20 22 23 25 26 25 25 24 23 22 23 23 22 23 24 23 24 26 27 29
30 30 29 32 21 12 12 13 21 19 16 15 15 14 13 12 13 14 16 17 18 17 18 19 21 22 23 25 25 25 23 22 21 20 21 20 20 21 23 24 24 25 27 30
Wind_Direction
308 296 296 301 292 290 293 287 286 285 285 286 269 265 256 248 238 223 226 228 230 221 226 229 225 225 263 244 235 233 224 273 273 259 254 257 258 257 260 276 300 299 277 266
317 306 302 299 293 288 288 286 280 287 283 273 271 267 252 241 243 221 219 207 222 211 231 237 232 227 226 247 200 225 254 264 269 256 253 269 244 255 260 273 292 304 296 280
319 322 325 316 306 297 286 285 282 280 281 272 270 265 256 241 232 235 228 219 230 231 220 230 226 217 216 218 232 236 258 262 255 258 258 263 247 258 260 269 287 300 302 288
325 321 313 308 308 309 302 302 282 279 284 265 258 271 250 245 233 226 222 223 218 217 210 216 214 216 228 222 228 231 254 256 257 253 261 265 259 261 258 264 277 291 298 288
325 333 314 323 313 308 295 296 289 282 269 270 264 274 258 234 231 216 218 214 216 202 200 213 223 226 230 228 228 240 253 253 250 255 252 263 260 258 263 266 271 283 289 283
330 338 0 321 330 328 300 293 294 285 273 273 254 247 262 238 250 208 211 212 210 212 211 217 227 227 222 226 235 243 242 251 254 254 253 261 258 265 263 255 271 274 279 279
344 342 321 339 340 352 345 324 12 311 271 249 273 215 252 278 253 211 213 221 214 220 217 217 223 225 236 239 240 236 243 254 264 251 255 259 255 264 255 258 266 273 283 282
346 336 344 332 327 321 348 359 359 298 304 285 234 214 299 165 69 156 186 189 201 210 212 211 217 227 232 236 241 240 244 262 265 252 254 251 257 255 252 259 270 279 278 285
332 324 3 351 2 346 341 336 315 273 301 257 75 69 125 71 110 178 169 177 184 204 218 215 223 225 224 230 231 239 250 255 250 250 255 248 252 255 256 267 268 277 285 288
326 314 326 339 343 326 338 347 327 316 344 36 120 46 40 61 100 154 144 190 208 218 220 225 226 227 228 229 234 244 242 246 249 246 238 247 256 255 260 265 275 279 282 283
330 309 307 336 339 335 340 344 339 356 11 28 19 28 24 67 77 125 200 196 192 202 214 217 222 228 232 229 231 235 240 242 241 241 246 260 253 261 266 276 278 280 282 283
321 316 313 326 1 24 359 349 355 10 21 13 322 51 23 64 45 39 87 147 181 198 201 208 210 215 220 227 234 241 243 236 229 240 247 260 263 272 275 278 282 282 283 286
341 336 328 345 338 341 346 348 358 15 18 45 53 353 25 13 21 41 62 106 147 167 178 193 203 213 222 230 233 228 222 223 238 249 255 269 271 276 280 281 283 284 286 290
342 322 305 290 317 317 317 328 344 14 25 39 47 19 329 337 346 20 52 90 125 156 180 196 208 214 212 212 218 230 237 244 251 259 266 272 277 279 280 283 284 287 292 296
326 311 323 301 314 313 329 330 325 325 332 358 347 352 356 33 45 0 29 77 105 143 159 175 187 201 217 236 252 259 262 265 269 272 274 278 279 279 282 285 289 293 296 297
325 297 326 325 333 309 326 339 5 14 3 54 47 57 17 37 44 21 49 102 122 147 176 193 213 236 257 269 274 276 275 275 275 276 279 279 281 283 286 292 296 298 300 300
309 321 327 293 329 321 249 345 8 44 347 19 150 272 305 337 353 323 14 225 205 216 221 234 248 259 271 280 278 276 280 280 281 282 283 282 285 291 297 300 301 301 298 295
279 271 288 292 343 234 207 0 7 70 23 11 338 271 293 330 15 131 283 223 243 245 252 257 263 272 277 279 283 286 285 285 286 287 290 294 299 301 302 302 301 299 297 297
263 241 278 274 319 272 31 351 357 132 25 27 29 57 64 69 92 84 88 284 296 289 276 273 277 280 284 290 291 290 291 292 292 296 300 302 305 304 302 302 302 300 299 298
276 244 228 308 290 300 251 332 337 188 276 11 6 20 93 112 19 326 321 302 295 291 287 286 288 292 296 296 294 294 297 297 301 304 304 305 304 305 306 305 304 302 300 300
274 273 250 257 261 265 269 278 325 256 268 326 323 317 287 281 285 290 301 301 294 290 292 294 297 300 299 300 300 300 302 307 307 307 308 307 307 308 307 305 303 302 302 302
252 262 241 246 252 258 257 261 265 267 289 298 308 307 307 296 295 298 300 300 299 297 298 301 304 304 305 303 303 305 310 311 310 309 308 309 309 308 306 306 306 307 305 303
248 235 247 255 243 269 275 279 280 284 285 295 306 307 307 302 299 299 300 300 300 302 305 306 304 305 305 308 311 312 313 313 312 312 312 312 311 309 308 307 307 307 306 306
252 269 263 264 267 273 270 274 276 279 282 297 309 308 304 301 299 298 299 301 304 305 306 305 305 306 310 313 313 313 314 315 315 314 313 312 315 313 309 310 309 309 310 312
237 252 249 252 239 272 277 273 267 268 276 284 302 302 297 296 295 296 298 300 303 304 303 303 304 309 315 316 317 319 319 319 317 315 313 314 316 314 313 314 313 313 313 313
261 258 255 262 257 270 254 252 255 254 272 275 292 296 291 293 293 294 297 301 302 301 300 301 306 313 318 318 321 324 324 323 320 317 312 315 317 317 315 315 315 315 314 315